This is the latest recevied weather packets stored in our database for station/object K0NV. If no packets are shown the sender has not sent any weather packets the latest 10 day(s).
| Time | Temp. | Humidity | Pressure | Rain* | Wind** | Luminosity | Snow |
|---|---|---|---|---|---|---|---|
| 1777651711 | 13.89° C | 57% | 1020.7 hPa | 0 mm | - | 848 W/m² | - |
| 1777651407 | 15° C | 53% | 1020.7 hPa | 0 mm | - | 876 W/m² | - |
| 1777651105 | 14.44° C | 53% | 1020.7 hPa | 0 mm | - | 894 W/m² | - |
| 1777650801 | 14.44° C | 53% | 1020.8 hPa | 0 mm | - | 848 W/m² | - |
| 1777650498 | 14.44° C | 54% | 1020.9 hPa | 0 mm | - | 839 W/m² | - |
| 1777650196 | 13.89° C | 50% | 1020.8 hPa | 0 mm | - | 852 W/m² | - |
| 1777649893 | 13.33° C | 51% | 1020.8 hPa | 0 mm | - | 536 W/m² | - |
| 1777649590 | 13.89° C | 50% | 1020.7 hPa | 0 mm | - | 562 W/m² | - |
| 1777649286 | 13.89° C | 51% | 1020.5 hPa | 0 mm | - | 442 W/m² | - |
| 1777648983 | 13.33° C | 53% | 1020.5 hPa | 0 mm | - | 544 W/m² | - |
| 1777648681 | 13.33° C | 51% | 1020.8 hPa | 0 mm | - | 466 W/m² | - |
| 1777648377 | 14.44° C | 52% | 1020.5 hPa | 0 mm | - | 448 W/m² | - |
| 1777648073 | 13.89° C | 52% | 1020.5 hPa | 0 mm | - | 605 W/m² | - |
| 1777647769 | 13.33° C | 52% | 1020.5 hPa | 0 mm | - | 650 W/m² | - |
| 1777647466 | 13.89° C | 52% | 1020.4 hPa | 0 mm | - | 468 W/m² | - |
| 1777647164 | 12.78° C | 56% | 1020.4 hPa | 0 mm | - | 645 W/m² | - |
| 1777646859 | 12.78° C | 55% | 1020.2 hPa | 0 mm | - | 733 W/m² | - |
| 1777646556 | 12.78° C | 56% | 1020.3 hPa | 0 mm | - | 692 W/m² | - |
| 1777646253 | 13.33° C | 57% | 1020.3 hPa | 0 mm | - | 631 W/m² | - |
| 1777645950 | 13.89° C | 56% | 1020.4 hPa | 0 mm | - | 571 W/m² | - |
| 1777645646 | 12.78° C | 60% | 1020.3 hPa | 0 mm | - | 389 W/m² | - |
| 1777645342 | 12.78° C | 62% | 1020.1 hPa | 0 mm | - | 411 W/m² | - |
| 1777645038 | 12.22° C | 66% | 1020.4 hPa | 0 mm | - | 353 W/m² | - |
| 1777644735 | 12.78° C | 66% | 1020.3 hPa | 0 mm | - | 425 W/m² | - |
| 1777644432 | 11.67° C | 67% | 1020.4 hPa | 0 mm | - | 402 W/m² | - |
* Rain latest hour (hover to see other rain measurements)
** Current wind speed in m/s (hover to see current wind gust speed)